Retour au catalogue

STARLINK-4408

ActifCommunicationsPO
NORAD 53206·PAYLOAD·🇺🇸 United States

Lancé Jul 22, 2022 depuis Vandenberg Space Force Base

Loading…

Prochains Passages (prochaines 24 heures)

TLE

FraisSource: CelesTrak SupGP

Époque: Sep 15, 2026, 02:15 UTC

1 53206C 22084T   26258.09423611  .00922270  00000+0  23871-2 0  2583
2 53206  97.2777 317.5196 0001122  61.1354 258.3923 15.94620043    12

Suivez STARLINK-4408 en temps réel avec AllMySat

Download on the App Store